Weather History for Crane Lake, MN

Change the Weather History Date:

Monday, November 25, 2013

  Actual Average Record
Temperature  
Mean Temperature 25 °F -  
Max Temperature 33 °F 29 °F 44 °F (1997)
Min Temperature 17 °F 16 °F -9 °F (1996)
Degree Days  
Heating Degree Days 40    
Moisture  
Dew Point 22 °F    
Average Humidity 77    
Maximum Humidity 87    
Minimum Humidity 60    
Precipitation  
Precipitation 0.00 in - - ()
Sea Level Pressure  
Sea Level Pressure 29.78 in    
Wind  
Wind Speed 7 mph (West)    
Max Wind Speed 12 mph    
Max Gust Speed 28 mph    
Visibility 9 miles    
Events Snow    
Averages and records for this station are not official NWS values.
T = Trace of Precipitation, MM = Missing Value Source: NWS Daily Summary

Daily Weather History Graph

Daily Weather History Graph

Search for Another Location

Airport:

Trip Planner

Search our weather history database for the weather conditions in past years. The results will help you decide how hot, cold, wet, or windy it might be!

Date:

Astronomy

Nov. 25, 2013 Rise Set
Actual Time 7:32 AM CST 4:21 PM CST
Civil Twilight 6:56 AM CST 4:56 PM CST
Nautical Twilight 6:18 AM CST 5:35 PM CST
Astronomical Twilight 5:40 AM CST 6:12 PM CST
Moon No Moon Rise 12:30 PM CST (11/25)
Length of Visible Light 9h 59m
Length of Day
8h 49m
Waning Gibbous, 51% of the Moon is Illuminated
Nov 25
Waning Gibbous
Nov 25
Last Quarter
Dec 2
New
Dec 9
First Quarter
Dec 17
Full

Hourly Weather History & Observations

Time (CST) Temp. Windchill Dew Point Humidity Pressure Visibility Wind Dir Wind Speed Gust Speed Precip Events Conditions
12:09 AM 33.8 °F 27.7 °F 21.2 °F 60% 29.62 in 10.0 mi SSW 6.9 mph - N/A   Overcast
12:29 AM 33.8 °F 29.6 °F 21.2 °F 60% 29.61 in 10.0 mi SW 4.6 mph - N/A   Scattered Clouds
12:49 AM 33.8 °F 29.6 °F 23.0 °F 65% 29.62 in 10.0 mi WSW 4.6 mph - N/A   Mostly Cloudy
1:09 AM 33.8 °F 25.8 °F 24.8 °F 70% 29.62 in 10.0 mi West 10.4 mph 16.1 mph N/A   Overcast
1:29 AM 33.8 °F 25.3 °F 24.8 °F 70% 29.62 in 10.0 mi West 11.5 mph 17.3 mph N/A   Overcast
1:49 AM 33.8 °F 27.0 °F 24.8 °F 70% 29.62 in 10.0 mi WSW 8.1 mph 17.3 mph N/A   Overcast
2:09 AM 33.8 °F 27.7 °F 26.6 °F 75% 29.63 in 10.0 mi WSW 6.9 mph - N/A   Overcast
2:29 AM 33.8 °F 27.0 °F 26.6 °F 75% 29.63 in 10.0 mi West 8.1 mph - N/A   Overcast
2:49 AM 33.8 °F 27.0 °F 26.6 °F 75% 29.63 in 10.0 mi West 8.1 mph - N/A   Overcast
3:09 AM 33.8 °F 26.4 °F 26.6 °F 75% 29.63 in 10.0 mi West 9.2 mph - N/A   Overcast
3:29 AM 33.8 °F 27.7 °F 26.6 °F 75% 29.64 in 10.0 mi West 6.9 mph - N/A   Overcast
3:49 AM 32.0 °F 24.8 °F 26.6 °F 80% 29.65 in 10.0 mi WSW 8.1 mph 18.4 mph N/A   Overcast
4:09 AM 32.0 °F 25.6 °F 26.6 °F 80% 29.65 in 10.0 mi West 6.9 mph 16.1 mph N/A   Overcast
4:29 AM 32.0 °F 24.8 °F 26.6 °F 80% 29.65 in 10.0 mi West 8.1 mph - N/A   Overcast
4:49 AM 32.0 °F 24.8 °F 26.6 °F 80% 29.66 in 10.0 mi West 8.1 mph 21.9 mph N/A   Overcast
5:09 AM 32.0 °F 24.8 °F 26.6 °F 80% 29.67 in 10.0 mi West 8.1 mph 18.4 mph N/A   Overcast
5:29 AM 32.0 °F 25.6 °F 26.6 °F 80% 29.68 in 7.0 mi West 6.9 mph - N/A   Overcast
5:49 AM 30.2 °F 25.4 °F 26.6 °F 86% 29.68 in 10.0 mi West 4.6 mph - N/A   Overcast
6:09 AM 30.2 °F 26.7 °F 26.6 °F 86% 29.68 in 7.0 mi West 3.5 mph - N/A   Overcast
6:29 AM 30.2 °F 25.4 °F 26.6 °F 86% 29.69 in 7.0 mi WSW 4.6 mph - N/A   Overcast
6:49 AM 30.2 °F 24.3 °F 26.6 °F 86% 29.69 in 10.0 mi West 5.8 mph - N/A   Overcast
7:09 AM 30.2 °F 24.3 °F 26.6 °F 86% 29.70 in 10.0 mi West 5.8 mph - N/A   Overcast
7:29 AM 30.2 °F 24.3 °F 26.6 °F 86% 29.71 in 10.0 mi WNW 5.8 mph - N/A   Overcast
7:49 AM 32.0 °F 26.4 °F 26.6 °F 80% 29.71 in 10.0 mi West 5.8 mph - N/A   Overcast
8:09 AM 32.0 °F 25.6 °F 26.6 °F 80% 29.72 in 10.0 mi West 6.9 mph - N/A   Overcast
8:29 AM 32.0 °F 26.4 °F 26.6 °F 80% 29.72 in 10.0 mi West 5.8 mph - N/A   Overcast
8:49 AM 32.0 °F 26.4 °F 26.6 °F 80% 29.73 in 10.0 mi West 5.8 mph - N/A   Overcast
9:09 AM 32.0 °F 26.4 °F 26.6 °F 80% 29.74 in 10.0 mi West 5.8 mph - N/A   Overcast
9:29 AM 32.0 °F 27.5 °F 26.6 °F 80% 29.75 in 10.0 mi West 4.6 mph - N/A   Overcast
9:49 AM 32.0 °F 28.7 °F 26.6 °F 80% 29.75 in 10.0 mi WNW 3.5 mph - N/A   Overcast
10:09 AM 32.0 °F 28.7 °F 26.6 °F 80% 29.76 in 7.0 mi NW 3.5 mph - N/A Snow Light Snow
10:29 AM 32.0 °F 24.8 °F 26.6 °F 80% 29.77 in 10.0 mi West 8.1 mph - N/A   Overcast
10:49 AM 32.0 °F 26.4 °F 26.6 °F 80% 29.77 in 7.0 mi NW 5.8 mph - N/A Snow Light Snow
11:09 AM 33.8 °F 27.0 °F 28.4 °F 81% 29.77 in 10.0 mi NW 8.1 mph - N/A Snow Light Snow
11:29 AM 33.8 °F 28.6 °F 26.6 °F 75% 29.78 in 10.0 mi NW 5.8 mph 16.1 mph N/A   Overcast
11:49 AM 33.8 °F 29.6 °F 26.6 °F 75% 29.78 in 10.0 mi West 4.6 mph - N/A   Overcast
12:09 PM 33.8 °F 29.6 °F 26.6 °F 75% 29.79 in 7.0 mi WNW 4.6 mph - N/A Snow Light Snow
12:29 PM 32.0 °F 25.6 °F 26.6 °F 80% 29.79 in 2.5 mi West 6.9 mph - N/A Snow Light Snow
12:49 PM 32.0 °F 26.4 °F 26.6 °F 80% 29.79 in 2.5 mi West 5.8 mph - N/A Snow Light Snow
1:09 PM 32.0 °F 25.6 °F 26.6 °F 80% 29.79 in 2.5 mi West 6.9 mph - N/A Snow Light Snow
1:29 PM 30.2 °F 26.7 °F 26.6 °F 86% 29.78 in 2.5 mi West 3.5 mph - N/A Snow Light Snow
1:49 PM 32.0 °F 26.4 °F 28.4 °F 87% 29.79 in 7.0 mi West 5.8 mph - N/A Snow Light Snow
2:09 PM 32.0 °F 26.4 °F 28.4 °F 87% 29.79 in 2.5 mi West 5.8 mph - N/A Snow Light Snow
2:29 PM 30.2 °F - 26.6 °F 86% 29.80 in 1.5 mi Calm Calm - N/A Snow Light Snow
2:50 PM 30.2 °F 23.4 °F 26.6 °F 86% 29.80 in 10.0 mi West 6.9 mph - N/A   Overcast
3:09 PM 30.2 °F 23.4 °F 26.6 °F 86% 29.81 in 10.0 mi West 6.9 mph - N/A   Overcast
3:29 PM 30.2 °F 22.6 °F 24.8 °F 80% 29.82 in 10.0 mi West 8.1 mph - N/A   Overcast
3:49 PM 28.4 °F 22.2 °F 23.0 °F 80% 29.83 in 10.0 mi NW 5.8 mph 20.7 mph N/A   Overcast
4:09 PM 28.4 °F 19.7 °F 21.2 °F 74% 29.85 in 10.0 mi West 9.2 mph 21.9 mph N/A   Overcast
4:29 PM 26.6 °F 20.0 °F 19.4 °F 74% 29.86 in 10.0 mi NW 5.8 mph 18.4 mph N/A   Overcast
4:49 PM 26.6 °F 18.2 °F 19.4 °F 74% 29.88 in 10.0 mi NW 8.1 mph 25.3 mph N/A   Overcast
5:09 PM 24.8 °F 15.3 °F 17.6 °F 74% 29.88 in 10.0 mi WNW 9.2 mph 19.6 mph N/A   Overcast
5:29 PM 24.8 °F 16.1 °F 15.8 °F 69% 29.90 in 10.0 mi WNW 8.1 mph 24.2 mph N/A   Overcast
5:49 PM 24.8 °F 16.9 °F 15.8 °F 69% 29.90 in 10.0 mi WNW 6.9 mph 17.3 mph N/A   Overcast
6:09 PM 23.0 °F 13.1 °F 15.8 °F 74% 29.91 in 10.0 mi WNW 9.2 mph 18.4 mph N/A   Overcast
6:29 PM 21.2 °F 10.9 °F 14.0 °F 74% 29.92 in 10.0 mi WNW 9.2 mph 18.4 mph N/A   Overcast
6:49 PM 21.2 °F 10.9 °F 12.2 °F 68% 29.93 in 10.0 mi West 9.2 mph - N/A   Overcast
7:09 PM 21.2 °F 13.6 °F 12.2 °F 68% 29.93 in 10.0 mi NW 5.8 mph 19.6 mph N/A   Overcast
7:29 PM 21.2 °F 12.6 °F 12.2 °F 68% 29.92 in 10.0 mi NW 6.9 mph - N/A   Overcast
7:49 PM 21.2 °F 10.9 °F 12.2 °F 68% 29.93 in 5.0 mi NW 9.2 mph 27.6 mph N/A Snow Light Snow
8:09 PM 19.4 °F 9.5 °F 12.2 °F 74% 29.93 in 7.0 mi NW 8.1 mph 21.9 mph N/A Snow Light Snow
8:29 PM 19.4 °F 7.9 °F 12.2 °F 74% 29.95 in 2.0 mi WNW 10.4 mph 25.3 mph N/A Snow Light Snow
8:49 PM 17.6 °F 8.2 °F 12.2 °F 79% 29.94 in 4.0 mi NW 6.9 mph - N/A Snow Light Snow
9:09 PM 17.6 °F 7.3 °F 10.4 °F 73% 29.94 in 10.0 mi NW 8.1 mph - N/A   Overcast
9:29 PM 17.6 °F 9.3 °F 10.4 °F 73% 29.94 in 10.0 mi West 5.8 mph - N/A   Overcast
9:49 PM 17.6 °F 8.2 °F 10.4 °F 73% 29.94 in 10.0 mi WNW 6.9 mph - N/A   Overcast
10:09 PM 17.6 °F 7.3 °F 10.4 °F 73% 29.94 in 10.0 mi West 8.1 mph - N/A   Overcast
10:29 PM 17.6 °F 12.3 °F 10.4 °F 73% 29.94 in 10.0 mi NW 3.5 mph - N/A   Overcast
10:49 PM 17.6 °F 10.7 °F 10.4 °F 73% 29.94 in 10.0 mi West 4.6 mph - N/A   Overcast
11:09 PM 17.6 °F 9.3 °F 10.4 °F 73% 29.94 in 10.0 mi WNW 5.8 mph - N/A   Overcast
11:29 PM 17.6 °F 7.3 °F 10.4 °F 73% 29.94 in 10.0 mi West 8.1 mph - N/A   Overcast
11:49 PM 17.6 °F - 10.4 °F 73% 29.94 in 10.0 mi Calm Calm - N/A   Overcast